,,,PA_Meas_PMT16A,,PR_Meas_QMR101_102,,RH_Meas_QMH101,,SR_Meas_QMS101,,TA_Meas_QMH101,,GenWind,,GenWind,
date,time,status,PA,status,PR,status,RH,status,SR,status,TA,status,DirAvg,status,SpdAvg,
2012-04-27, 00:00:04,VALID,1001.42,VALID,0,VALID,91.9751,VALID,0,VALID,23.4263,VALID,102,VALID,0.357422,
2012-04-27, 00:01:04,VALID,1001.43,VALID,0,VALID,92.0209,VALID,0,VALID,23.4475,VALID,102,VALID,0.380078,
2012-04-27, 00:02:04,VALID,1001.41,VALID,0,VALID,92.059,VALID,0,VALID,23.4263,VALID,102,VALID,0.360547,
2012-04-27, 00:03:04,VALID,1001.42,VALID,0,VALID,92.0514,VALID,0,VALID,23.4263,VALID,102,VALID,0.333984,
2012-04-27, 00:04:04,VALID,1001.42,VALID,0,VALID,92.1506,VALID,0,VALID,23.4263,VALID,102,VALID,0.33125,
2012-04-27, 00:05:04,VALID,1001.42,VALID,0,VALID,92.2497,VALID,0,VALID,23.4671,VALID,102,VALID,0.442578,
2012-04-27, 00:06:04,VALID,1001.45,VALID,0,VALID,92.3184,VALID,0,VALID,23.4671,VALID,102,VALID,0.329688,
2012-04-27, 00:07:04,VALID,1001.39,VALID,0,VALID,92.2803,VALID,0,VALID,23.4653,VALID,102,VALID,0.297656,
2012-04-27, 00:08:04,VALID,1001.4,VALID,0,VALID,92.2192,VALID,0,VALID,23.4458,VALID,102,VALID,0.242969,
2012-04-27, 00:09:04,VALID,1001.39,VALID,0,VALID,92.1658,VALID,0,VALID,23.4475,VALID,102,VALID,0.324609,
2012-04-27, 00:10:04,VALID,1001.42,VALID,0,VALID,92.0514,VALID,0,VALID,23.428,VALID,102,VALID,0.23125,
2012-04-27, 00:11:04,VALID,1001.39,VALID,0,VALID,92.0132,VALID,0,VALID,23.389,VALID,102,VALID,0.305469,
2012-04-27, 00:12:04,VALID,1001.4,VALID,0,VALID,92.0514,VALID,0,VALID,23.3482,VALID,102,VALID,0.339063,
2012-04-27, 00:13:04,VALID,1001.41,VALID,0,VALID,92.0437,VALID,0,VALID,23.3287,VALID,102,VALID,0.529688,
2012-04-27, 00:14:04,VALID,1001.43,VALID,0,VALID,91.9598,VALID,0,VALID,23.3305,VALID,102,VALID,0.473828,
2012-04-27, 00:15:04,VALID,1001.4,VALID,0,VALID,91.8072,VALID,0,VALID,23.2897,VALID,102,VALID,0.482422,
2012-04-27, 00:16:04,VALID,1001.43,VALID,0,VALID,91.7157,VALID,0,VALID,23.2897,VALID,102,VALID,0.516406,
2012-04-27, 00:17:04,VALID,1001.41,VALID,0,VALID,91.6241,VALID,0,VALID,23.311,VALID,102,VALID,0.546875,
2012-04-27, 00:18:04,VALID,1001.4,VALID,0,VALID,91.4944,VALID,0,VALID,23.2897,VALID,102,VALID,0.620313,
2012-04-27, 00:19:04,VALID,1001.38,VALID,0,VALID,91.4791,VALID,0,VALID,23.2897,VALID,102,VALID,0.625,
2012-04-27, 00:20:04,VALID,1001.38,VALID,0,VALID,91.502,VALID,0,VALID,23.311,VALID,102,VALID,0.583203,
2012-04-27, 00:21:04,VALID,1001.39,VALID,0,VALID,91.4639,VALID,0,VALID,23.3305,VALID,102,VALID,0.725781,
2012-04-27, 00:22:04,VALID,1001.33,VALID,0,VALID,91.38,VALID,0,VALID,23.3305,VALID,110,VALID,0.724609,
2012-04-27, 00:23:04,VALID,1001.33,VALID,0,VALID,91.3876,VALID,0,VALID,23.3305,VALID,122,VALID,0.741797,
2012-04-27, 00:24:04,VALID,1001.3,VALID,0,VALID,91.3494,VALID,0,VALID,23.3305,VALID,147,VALID,0.901563,
2012-04-27, 00:25:04,VALID,1001.27,VALID,0,VALID,90.9374,VALID,0,VALID,23.3092,VALID,150,VALID,1.25,
2012-04-27, 00:26:04,VALID,1001.29,VALID,0,VALID,90.7314,VALID,0,VALID,23.3305,VALID,152,VALID,1.29844,
2012-04-27, 00:27:04,VALID,1001.27,VALID,0,VALID,90.6551,VALID,0,VALID,23.2897,VALID,150,VALID,0.904688,
2012-04-27, 00:28:04,VALID,1001.27,VALID,0,VALID,90.6551,VALID,0,VALID,23.2702,VALID,138,VALID,1.26797,
2012-04-27, 00:29:04,VALID,1001.27,VALID,0,VALID,90.7467,VALID,0,VALID,23.2719,VALID,135,VALID,1.03281,
2012-04-27, 00:30:04,VALID,1001.25,VALID,0,VALID,90.7696,VALID,0,VALID,23.2719,VALID,135,VALID,0.932422,
2012-04-27, 00:31:04,VALID,1001.25,VALID,0,VALID,90.7543,VALID,0,VALID,23.2524,VALID,139,VALID,0.975781,
2012-04-27, 00:32:04,VALID,1001.22,VALID,0,VALID,90.8154,VALID,0,VALID,23.2329,VALID,133,VALID,1.10977,
2012-04-27, 00:33:04,VALID,1001.23,VALID,0,VALID,90.8383,VALID,0,VALID,23.2134,VALID,133,VALID,0.851953,
2012-04-27, 00:34:04,VALID,1001.21,VALID,0,VALID,90.8688,VALID,0,VALID,23.2134,VALID,130,VALID,0.898047,
2012-04-27, 00:35:04,VALID,1001.19,VALID,0,VALID,90.9374,VALID,0,VALID,23.1939,VALID,129,VALID,1.01016,
2012-04-27, 00:36:04,VALID,1001.19,VALID,0,VALID,90.9832,VALID,0,VALID,23.1531,VALID,129,VALID,0.854688,
2012-04-27, 00:37:04,VALID,1001.15,VALID,0,VALID,91.0214,VALID,0,VALID,23.1549,VALID,129,VALID,0.807422,
2012-04-27, 00:38:04,VALID,1001.13,VALID,0,VALID,91.1358,VALID,0,VALID,23.1354,VALID,129,VALID,0.589844,
2012-04-27, 00:39:04,VALID,1001.11,VALID,0,VALID,91.2274,VALID,0,VALID,23.1354,VALID,129,VALID,0.633594,
2012-04-27, 00:40:04,VALID,1001.09,VALID,0,VALID,91.296,VALID,0,VALID,23.1354,VALID,129,VALID,0.463672,
2012-04-27, 00:41:04,VALID,1001.07,VALID,0,VALID,91.3037,VALID,0,VALID,23.1159,VALID,129,VALID,0.344531,
2012-04-27, 00:42:04,VALID,1001.07,VALID,0,VALID,91.4028,VALID,0,VALID,23.1176,VALID,129,VALID,0.290625,
2012-04-27, 00:43:04,VALID,1001.08,VALID,0,VALID,91.4028,VALID,0,VALID,23.0964,VALID,129,VALID,0.0765625,
2012-04-27, 00:44:04,VALID,1001.06,VALID,0,VALID,91.4486,VALID,0,VALID,23.1176,VALID,129,VALID,0.262109,
2012-04-27, 00:45:04,VALID,1001.07,VALID,0,VALID,91.5326,VALID,0,VALID,23.0769,VALID,129,VALID,0.186719,
2012-04-27, 00:46:04,VALID,1001.07,VALID,0,VALID,91.647,VALID,0,VALID,23.0769,VALID,129,VALID,0.358594,
2012-04-27, 00:47:04,VALID,1001.1,VALID,0,VALID,91.7385,VALID,0,VALID,23.0769,VALID,129,VALID,0.139844,
2012-04-27, 00:48:04,VALID,1001.08,VALID,0,VALID,91.7691,VALID,0,VALID,23.0769,VALID,129,VALID,0.284766,
2012-04-27, 00:49:04,VALID,1001.07,VALID,0,VALID,91.8225,VALID,0,VALID,23.0769,VALID,129,VALID,0.299219,
2012-04-27, 00:50:04,VALID,1001.02,VALID,0,VALID,91.8683,VALID,0,VALID,23.0769,VALID,129,VALID,0.253516,
2012-04-27, 00:51:04,VALID,1001.03,VALID,0,VALID,91.8683,VALID,0,VALID,23.0769,VALID,129,VALID,0.288281,
2012-04-27, 00:52:04,VALID,1000.99,VALID,0,VALID,91.8606,VALID,0,VALID,23.0769,VALID,129,VALID,0.118359,
2012-04-27, 00:53:04,VALID,1000.98,VALID,0,VALID,91.8301,VALID,0,VALID,23.0573,VALID,129,VALID,0,
2012-04-27, 00:54:04,VALID,1000.96,VALID,0,VALID,91.8225,VALID,0,VALID,23.0573,VALID,129,VALID,0.025,
2012-04-27, 00:55:04,VALID,1000.93,VALID,0,VALID,91.8072,VALID,0,VALID,23.0378,VALID,129,VALID,0.396484,
2012-04-27, 00:56:04,VALID,1000.88,VALID,0,VALID,91.853,VALID,0,VALID,23.0378,VALID,129,VALID,0.429688,
2012-04-27, 00:57:04,VALID,1000.89,VALID,0,VALID,91.8454,VALID,0,VALID,23.0378,VALID,129,VALID,0.474219,
2012-04-27, 00:58:04,VALID,1000.84,VALID,0,VALID,91.7462,VALID,0,VALID,23.0183,VALID,129,VALID,0.415625,
2012-04-27, 00:59:04,VALID,1000.85,VALID,0,VALID,91.5936,VALID,0,VALID,23.0378,VALID,129,VALID,0.352344,
2012-04-27, 01:00:04,VALID,1000.82,VALID,0,VALID,91.4791,VALID,0,VALID,23.0183,VALID,129,VALID,0.424609,
2012-04-27, 01:01:04,VALID,1000.8,VALID,0,VALID,91.4181,VALID,0,VALID,23.0378,VALID,129,VALID,0.571875,
2012-04-27, 01:02:04,VALID,1000.74,VALID,0,VALID,91.4105,VALID,0,VALID,23.0378,VALID,129,VALID,0.475,
2012-04-27, 01:03:04,VALID,1000.73,VALID,0,VALID,91.3418,VALID,0,VALID,23.0573,VALID,129,VALID,0.583984,
2012-04-27, 01:04:04,VALID,1000.75,VALID,0,VALID,91.2808,VALID,0,VALID,23.0573,VALID,129,VALID,0.514844,
2012-04-27, 01:05:04,VALID,1000.72,VALID,0,VALID,91.2274,VALID,0,VALID,23.0573,VALID,129,VALID,0.501562,
2012-04-27, 01:06:04,VALID,1000.72,VALID,0,VALID,91.1663,VALID,0,VALID,23.0769,VALID,129,VALID,0.585938,
2012-04-27, 01:07:04,VALID,1000.73,VALID,0,VALID,91.0824,VALID,0,VALID,23.0573,VALID,129,VALID,0.633203,
2012-04-27, 01:08:04,VALID,1000.72,VALID,0,VALID,91.0366,VALID,0,VALID,23.0769,VALID,129,VALID,0.483594,
2012-04-27, 01:09:04,VALID,1000.72,VALID,0,VALID,91.0214,VALID,0,VALID,23.0786,VALID,129,VALID,0.457031,
2012-04-27, 01:10:04,VALID,1000.69,VALID,0,VALID,91.0061,VALID,0,VALID,23.0573,VALID,129,VALID,0.480469,
2012-04-27, 01:11:04,VALID,1000.72,VALID,0,VALID,91.0671,VALID,0,VALID,23.0378,VALID,129,VALID,0.620703,
2012-04-27, 01:12:04,VALID,1000.71,VALID,0,VALID,90.9909,VALID,0,VALID,23.0378,VALID,129,VALID,0.758984,
2012-04-27, 01:13:04,VALID,1000.69,VALID,0,VALID,91.0748,VALID,0,VALID,23.0183,VALID,129,VALID,0.813672,
2012-04-27, 01:14:04,VALID,1000.72,VALID,0,VALID,91.0977,VALID,0,VALID,23.0378,VALID,129,VALID,0.779688,
2012-04-27, 01:15:04,VALID,1000.72,VALID,0,VALID,91.174,VALID,0,VALID,23.0378,VALID,110,VALID,1.03594,
2012-04-27, 01:16:04,VALID,1000.7,VALID,0,VALID,91.1816,VALID,0,VALID,23.0378,VALID,110,VALID,0.958203,
2012-04-27, 01:17:04,VALID,1000.72,VALID,0,VALID,91.0671,VALID,0,VALID,23.0183,VALID,109,VALID,0.706641,
2012-04-27, 01:18:04,VALID,1000.7,VALID,0,VALID,91.174,VALID,0,VALID,23.0378,VALID,109,VALID,0.655469,
2012-04-27, 01:19:04,VALID,1000.66,VALID,0,VALID,91.3494,VALID,0,VALID,23.0183,VALID,109,VALID,0.573828,
2012-04-27, 01:20:04,VALID,1000.64,VALID,0,VALID,91.502,VALID,0,VALID,23.0183,VALID,109,VALID,0.364062,
2012-04-27, 01:21:04,VALID,1000.65,VALID,0,VALID,91.5631,VALID,0,VALID,23.0396,VALID,109,VALID,0.382422,
2012-04-27, 01:22:04,VALID,1000.63,VALID,0,VALID,91.6317,VALID,0,VALID,23.0183,VALID,109,VALID,0.327734,
2012-04-27, 01:23:04,VALID,1000.63,VALID,0,VALID,91.6546,VALID,0,VALID,23.0183,VALID,109,VALID,0.419531,
2012-04-27, 01:24:04,VALID,1000.62,VALID,0,VALID,91.792,VALID,0,VALID,23.0378,VALID,109,VALID,0.631641,
2012-04-27, 01:25:04,VALID,1000.6,VALID,0,VALID,91.8683,VALID,0,VALID,23.0573,VALID,109,VALID,0.692578,
2012-04-27, 01:26:04,VALID,1000.55,VALID,0,VALID,91.7157,VALID,0,VALID,23.0573,VALID,120,VALID,0.817187,
2012-04-27, 01:27:04,VALID,1000.53,VALID,0,VALID,91.4105,VALID,0,VALID,23.0573,VALID,119,VALID,0.866016,
2012-04-27, 01:28:04,VALID,1000.56,VALID,0,VALID,91.1816,VALID,0,VALID,23.0573,VALID,120,VALID,1.11406,
2012-04-27, 01:29:04,VALID,1000.55,VALID,0,VALID,91.174,VALID,0,VALID,23.0183,VALID,120,VALID,0.937109,
2012-04-27, 01:30:04,VALID,1000.54,VALID,0,VALID,91.2274,VALID,0,VALID,23.0201,VALID,115,VALID,1.17734,
2012-04-27, 01:31:04,VALID,1000.53,VALID,0,VALID,91.2731,VALID,0,VALID,22.9988,VALID,125,VALID,1.03867,
2012-04-27, 01:32:04,VALID,1000.53,VALID,0,VALID,91.2731,VALID,0,VALID,22.9793,VALID,125,VALID,0.591016,
2012-04-27, 01:33:04,VALID,1000.55,VALID,0,VALID,91.2426,VALID,0,VALID,22.9793,VALID,125,VALID,0.735156,
2012-04-27, 01:34:04,VALID,1000.52,VALID,0,VALID,91.3037,VALID,0,VALID,22.9598,VALID,125,VALID,0.477734,
2012-04-27, 01:35:04,VALID,1000.51,VALID,0,VALID,91.3418,VALID,0,VALID,22.9598,VALID,143,VALID,0.715625,
2012-04-27, 01:36:04,VALID,1000.53,VALID,0,VALID,91.2884,VALID,0,VALID,22.9598,VALID,163,VALID,0.567187,
2012-04-27, 01:37:04,VALID,1000.52,VALID,0,VALID,91.3037,VALID,0,VALID,22.9598,VALID,163,VALID,0.673828,
2012-04-27, 01:38:04,VALID,1000.5,VALID,0,VALID,91.2121,VALID,0,VALID,22.9403,VALID,162,VALID,0.801172,
2012-04-27, 01:39:04,VALID,1000.47,VALID,0,VALID,91.1206,VALID,0,VALID,22.9598,VALID,146,VALID,0.781641,
2012-04-27, 01:40:04,VALID,1000.48,VALID,0,VALID,91.0443,VALID,0,VALID,22.9598,VALID,145,VALID,0.770312,
2012-04-27, 01:41:04,VALID,1000.46,VALID,0,VALID,90.9603,VALID,0,VALID,22.9385,VALID,143,VALID,0.602734,
2012-04-27, 01:42:04,VALID,1000.47,VALID,0,VALID,91.0443,VALID,0,VALID,22.9403,VALID,143,VALID,0.438672,
2012-04-27, 01:43:04,VALID,1000.45,VALID,0,VALID,91.1053,VALID,0,VALID,22.9403,VALID,143,VALID,0.234375,
2012-04-27, 01:44:04,VALID,1000.46,VALID,0,VALID,91.1053,VALID,0,VALID,22.9403,VALID,143,VALID,0.0375,
2012-04-27, 01:45:04,VALID,1000.45,VALID,0,VALID,91.0671,VALID,0,VALID,22.9208,VALID,143,VALID,0.096875,
2012-04-27, 01:46:04,VALID,1000.43,VALID,0,VALID,91.1892,VALID,0,VALID,22.9013,VALID,143,VALID,0.310156,
2012-04-27, 01:47:04,VALID,1000.44,VALID,0,VALID,91.3647,VALID,0,VALID,22.9013,VALID,143,VALID,0.219922,
2012-04-27, 01:48:04,VALID,1000.41,VALID,0,VALID,91.5402,VALID,0,VALID,22.9013,VALID,143,VALID,0.371875,
2012-04-27, 01:49:04,VALID,1000.38,VALID,0,VALID,91.5936,VALID,0,VALID,22.9013,VALID,143,VALID,0.420703,
2012-04-27, 01:50:04,VALID,1000.36,VALID,0,VALID,91.6012,VALID,0,VALID,22.9013,VALID,143,VALID,0.526953,
2012-04-27, 01:51:04,VALID,1000.37,VALID,0,VALID,91.6928,VALID,0,VALID,22.9013,VALID,143,VALID,0.490625,
2012-04-27, 01:52:04,VALID,1000.32,VALID,0,VALID,91.708,VALID,0,VALID,22.9208,VALID,143,VALID,0.439063,
2012-04-27, 01:53:04,VALID,1000.32,VALID,0,VALID,91.7309,VALID,0,VALID,22.9403,VALID,143,VALID,0.211719,
2012-04-27, 01:54:04,VALID,1000.3,VALID,0,VALID,91.6699,VALID,0,VALID,22.8995,VALID,143,VALID,0.285156,
2012-04-27, 01:55:04,VALID,1000.29,VALID,0,VALID,91.6394,VALID,0,VALID,22.9208,VALID,143,VALID,0.204688,
2012-04-27, 01:56:04,VALID,1000.26,VALID,0,VALID,91.5936,VALID,0,VALID,22.9013,VALID,143,VALID,0.221094,
2012-04-27, 01:57:04,VALID,1000.23,VALID,0,VALID,91.647,VALID,0,VALID,22.9208,VALID,143,VALID,0.203906,
2012-04-27, 01:58:04,VALID,1000.24,VALID,0,VALID,91.6928,VALID,0,VALID,22.9208,VALID,143,VALID,0.236328,
2012-04-27, 01:59:04,VALID,1000.22,VALID,0,VALID,91.7157,VALID,0,VALID,22.9013,VALID,143,VALID,0.124219,
2012-04-27, 02:00:04,VALID,1000.23,VALID,0,VALID,91.7004,VALID,0,VALID,22.9013,VALID,143,VALID,0.305859,
2012-04-27, 02:01:04,VALID,1000.23,VALID,0,VALID,91.6928,VALID,0,VALID,22.8818,VALID,143,VALID,0.424609,
2012-04-27, 02:02:04,VALID,1000.2,VALID,0,VALID,91.6546,VALID,0,VALID,22.8623,VALID,143,VALID,0.362109,
2012-04-27, 02:03:04,VALID,1000.21,VALID,0,VALID,91.6394,VALID,0,VALID,22.841,VALID,142,VALID,0.764844,
2012-04-27, 02:04:04,VALID,1000.17,VALID,0,VALID,91.647,VALID,0,VALID,22.841,VALID,135,VALID,0.46875,
2012-04-27, 02:05:04,VALID,1000.19,VALID,0,VALID,91.5707,VALID,0,VALID,22.841,VALID,135,VALID,0.430078,
2012-04-27, 02:06:04,VALID,1000.15,VALID,0,VALID,91.4486,VALID,0,VALID,22.8623,VALID,135,VALID,0.332812,
2012-04-27, 02:07:04,VALID,1000.14,VALID,0,VALID,91.4105,VALID,0,VALID,22.8623,VALID,135,VALID,0.317187,
2012-04-27, 02:08:04,VALID,1000.12,VALID,0,VALID,91.4486,VALID,0,VALID,22.8623,VALID,135,VALID,0.266016,
2012-04-27, 02:09:04,VALID,1000.12,VALID,0,VALID,91.441,VALID,0,VALID,22.8623,VALID,135,VALID,0.295703,
2012-04-27, 02:10:04,VALID,1000.13,VALID,0,VALID,91.4715,VALID,0,VALID,22.8623,VALID,135,VALID,0.283984,
2012-04-27, 02:11:04,VALID,1000.12,VALID,0,VALID,91.5249,VALID,0,VALID,22.8623,VALID,135,VALID,0.34375,
2012-04-27, 02:12:04,VALID,1000.12,VALID,0,VALID,91.4868,VALID,0,VALID,22.8623,VALID,135,VALID,0.376172,
2012-04-27, 02:13:04,VALID,1000.11,VALID,0,VALID,91.4639,VALID,0,VALID,22.8427,VALID,135,VALID,0.309375,
2012-04-27, 02:14:04,VALID,1000.12,VALID,0,VALID,91.502,VALID,0,VALID,22.8215,VALID,135,VALID,0.135547,
2012-04-27, 02:15:04,VALID,1000.13,VALID,0,VALID,91.441,VALID,0,VALID,22.8215,VALID,135,VALID,0.134375,
2012-04-27, 02:16:04,VALID,1000.09,VALID,0,VALID,91.441,VALID,0,VALID,22.802,VALID,135,VALID,0.167187,
2012-04-27, 02:17:04,VALID,1000.07,VALID,0,VALID,91.5249,VALID,0,VALID,22.8037,VALID,135,VALID,0.395312,
2012-04-27, 02:18:04,VALID,1000.04,VALID,0,VALID,91.6165,VALID,0,VALID,22.7842,VALID,135,VALID,0.548047,
2012-04-27, 02:19:04,VALID,1000.03,VALID,0,VALID,91.6165,VALID,0,VALID,22.7825,VALID,135,VALID,0.514453,
2012-04-27, 02:20:04,VALID,1000,VALID,0,VALID,91.502,VALID,0,VALID,22.8037,VALID,135,VALID,0.685547,
2012-04-27, 02:21:04,VALID,999.991,VALID,0,VALID,91.3494,VALID,0,VALID,22.8232,VALID,124,VALID,0.774609,
2012-04-27, 02:22:04,VALID,999.987,VALID,0,VALID,91.296,VALID,0,VALID,22.8232,VALID,118,VALID,0.823828,
2012-04-27, 02:23:04,VALID,999.938,VALID,0,VALID,91.235,VALID,0,VALID,22.8427,VALID,118,VALID,0.795703,
2012-04-27, 02:24:04,VALID,999.933,VALID,0,VALID,91.235,VALID,0,VALID,22.8623,VALID,118,VALID,0.651172,
2012-04-27, 02:25:04,VALID,999.946,VALID,0,VALID,91.235,VALID,0,VALID,22.8623,VALID,118,VALID,0.585156,
2012-04-27, 02:26:04,VALID,999.962,VALID,0,VALID,91.2731,VALID,0,VALID,22.8623,VALID,118,VALID,0.578125,
2012-04-27, 02:27:04,VALID,999.946,VALID,0,VALID,91.1434,VALID,0,VALID,22.8818,VALID,118,VALID,0.644922,
2012-04-27, 02:28:04,VALID,999.931,VALID,0,VALID,91.1816,VALID,0,VALID,22.8818,VALID,118,VALID,0.670703,
2012-04-27, 02:29:04,VALID,999.965,VALID,0,VALID,91.3189,VALID,0,VALID,22.8623,VALID,118,VALID,0.520312,
2012-04-27, 02:30:04,VALID,999.954,VALID,0,VALID,91.3418,VALID,0,VALID,22.8623,VALID,118,VALID,0.503125,
2012-04-27, 02:31:04,VALID,999.979,VALID,0,VALID,91.3342,VALID,0,VALID,22.8818,VALID,118,VALID,0.215234,
2012-04-27, 02:32:04,VALID,999.972,VALID,0,VALID,91.3037,VALID,0,VALID,22.841,VALID,118,VALID,0.318359,
2012-04-27, 02:33:04,VALID,999.973,VALID,0,VALID,91.3113,VALID,0,VALID,22.8427,VALID,118,VALID,0.146484,
2012-04-27, 02:34:04,VALID,999.998,VALID,0,VALID,91.3342,VALID,0,VALID,22.841,VALID,118,VALID,0.579687,
2012-04-27, 02:35:04,VALID,999.996,VALID,0,VALID,91.2197,VALID,0,VALID,22.8215,VALID,118,VALID,0.360156,
2012-04-27, 02:36:04,VALID,1000,VALID,0,VALID,91.2045,VALID,0,VALID,22.8232,VALID,118,VALID,0.453516,
2012-04-27, 02:37:04,VALID,1000.01,VALID,0,VALID,91.2426,VALID,0,VALID,22.8215,VALID,118,VALID,0.400391,
2012-04-27, 02:38:04,VALID,1000.05,VALID,0,VALID,91.2274,VALID,0,VALID,22.8232,VALID,118,VALID,0.635547,
2012-04-27, 02:39:04,VALID,1000.02,VALID,0,VALID,91.4563,VALID,0,VALID,22.8037,VALID,118,VALID,0.607031,
2012-04-27, 02:40:04,VALID,1000.03,VALID,0,VALID,91.6088,VALID,0,VALID,22.8232,VALID,118,VALID,0.499219,
2012-04-27, 02:41:04,VALID,1000.05,VALID,0,VALID,91.6546,VALID,0,VALID,22.8037,VALID,118,VALID,0.391016,
2012-04-27, 02:42:04,VALID,1000.03,VALID,0,VALID,91.5631,VALID,0,VALID,22.802,VALID,118,VALID,0.523828,
2012-04-27, 02:43:04,VALID,1000.01,VALID,0,VALID,91.586,VALID,0,VALID,22.8037,VALID,118,VALID,0.534766,
2012-04-27, 02:44:04,VALID,1000.01,VALID,0,VALID,91.647,VALID,0,VALID,22.8037,VALID,118,VALID,0.410937,
2012-04-27, 02:45:04,VALID,1000.04,VALID,0,VALID,91.7233,VALID,0,VALID,22.8037,VALID,118,VALID,0.403125,
2012-04-27, 02:46:04,VALID,1000.07,VALID,0,VALID,91.8148,VALID,0,VALID,22.8037,VALID,118,VALID,0.561328,
2012-04-27, 02:47:04,VALID,1000.04,VALID,0,VALID,91.8683,VALID,0,VALID,22.7842,VALID,118,VALID,0.548437,
2012-04-27, 02:48:04,VALID,1000.06,VALID,0,VALID,91.9293,VALID,0.104696,VALID,22.763,VALID,118,VALID,0.474609,
2012-04-27, 02:49:04,VALID,1000.03,VALID,0,VALID,91.9369,VALID,0,VALID,22.763,VALID,118,VALID,0.379687,
2012-04-27, 02:50:04,VALID,999.99,VALID,0,VALID,92.0285,VALID,0,VALID,22.7435,VALID,116,VALID,0.639453,
2012-04-27, 02:51:04,VALID,999.997,VALID,0,VALID,92.0666,VALID,0,VALID,22.7435,VALID,93,VALID,0.717578,
2012-04-27, 02:52:04,VALID,999.993,VALID,0,VALID,91.998,VALID,0,VALID,22.7647,VALID,93,VALID,0.521484,
2012-04-27, 02:53:04,VALID,999.97,VALID,0,VALID,91.9903,VALID,0,VALID,22.7452,VALID,93,VALID,0.443359,
2012-04-27, 02:54:04,VALID,999.999,VALID,0,VALID,92.0285,VALID,0,VALID,22.7062,VALID,93,VALID,0.348047,
2012-04-27, 02:55:04,VALID,999.97,VALID,0,VALID,92.059,VALID,0,VALID,22.6867,VALID,93,VALID,0.585156,
2012-04-27, 02:56:04,VALID,999.944,VALID,0,VALID,92.1048,VALID,0,VALID,22.6867,VALID,93,VALID,0.30625,
2012-04-27, 02:57:04,VALID,999.945,VALID,0,VALID,92.2421,VALID,0,VALID,22.646,VALID,93,VALID,0.185937,
2012-04-27, 02:58:04,VALID,999.972,VALID,0,VALID,92.265,VALID,0,VALID,22.6477,VALID,93,VALID,0.160547,
2012-04-27, 02:59:04,VALID,999.967,VALID,0,VALID,92.3108,VALID,0,VALID,22.6477,VALID,93,VALID,0.300781,
2012-04-27, 03:00:04,VALID,999.928,VALID,0,VALID,92.4328,VALID,0,VALID,22.6477,VALID,93,VALID,0.387109,
2012-04-27, 03:01:04,VALID,999.916,VALID,0,VALID,92.471,VALID,0,VALID,22.6282,VALID,111,VALID,0.577734,
2012-04-27, 03:02:04,VALID,999.944,VALID,0,VALID,92.4328,VALID,0,VALID,22.6477,VALID,112,VALID,0.331641,
2012-04-27, 03:03:04,VALID,999.93,VALID,0,VALID,92.3566,VALID,0,VALID,22.6282,VALID,111,VALID,0.273438,
2012-04-27, 03:04:04,VALID,999.923,VALID,0,VALID,92.3947,VALID,0,VALID,22.6282,VALID,111,VALID,0.389062,
2012-04-27, 03:05:04,VALID,999.934,VALID,0,VALID,92.4023,VALID,0,VALID,22.6087,VALID,111,VALID,0.325391,
2012-04-27, 03:06:04,VALID,999.921,VALID,0,VALID,92.4939,VALID,0,VALID,22.6087,VALID,111,VALID,0.41875,
2012-04-27, 03:07:04,VALID,999.888,VALID,0,VALID,92.5015,VALID,0,VALID,22.6087,VALID,111,VALID,0.448828,
2012-04-27, 03:08:04,VALID,999.901,VALID,0,VALID,92.5015,VALID,0,VALID,22.5874,VALID,114,VALID,0.595312,
2012-04-27, 03:09:04,VALID,999.898,VALID,0,VALID,92.4557,VALID,0,VALID,22.6069,VALID,121,VALID,0.650391,
2012-04-27, 03:10:04,VALID,999.847,VALID,0,VALID,92.3947,VALID,0,VALID,22.6282,VALID,117,VALID,0.674609,
2012-04-27, 03:11:04,VALID,999.852,VALID,0,VALID,92.3794,VALID,0,VALID,22.6069,VALID,117,VALID,0.514844,
2012-04-27, 03:12:04,VALID,999.823,VALID,0,VALID,92.3489,VALID,0,VALID,22.6069,VALID,122,VALID,0.992188,
2012-04-27, 03:13:04,VALID,999.79,VALID,0,VALID,92.3413,VALID,0,VALID,22.6282,VALID,123,VALID,0.90625,
2012-04-27, 03:14:04,VALID,999.8,VALID,0,VALID,92.3794,VALID,0,VALID,22.6264,VALID,120,VALID,1.0582,
2012-04-27, 03:15:04,VALID,999.807,VALID,0,VALID,92.3718,VALID,0,VALID,22.6282,VALID,120,VALID,0.937891,
2012-04-27, 03:16:04,VALID,999.802,VALID,0,VALID,92.3642,VALID,0,VALID,22.6282,VALID,118,VALID,0.807031,
2012-04-27, 03:17:04,VALID,999.805,VALID,0,VALID,92.3947,VALID,0,VALID,22.6282,VALID,110,VALID,0.707422,
2012-04-27, 03:18:04,VALID,999.815,VALID,0,VALID,92.4786,VALID,0,VALID,22.6087,VALID,109,VALID,0.729297,
2012-04-27, 03:19:04,VALID,999.799,VALID,0,VALID,92.5931,VALID,0,VALID,22.5892,VALID,109,VALID,0.680469,
2012-04-27, 03:20:04,VALID,999.818,VALID,0,VALID,92.6999,VALID,0,VALID,22.5679,VALID,101,VALID,0.771875,
2012-04-27, 03:21:04,VALID,999.829,VALID,0,VALID,92.6999,VALID,0,VALID,22.5892,VALID,85,VALID,0.826953,
2012-04-27, 03:22:04,VALID,999.812,VALID,0,VALID,92.6465,VALID,0,VALID,22.5696,VALID,82,VALID,0.596094,
2012-04-27, 03:23:04,VALID,999.853,VALID,0,VALID,92.6617,VALID,0,VALID,22.5484,VALID,82,VALID,0.598437,
2012-04-27, 03:24:04,VALID,999.861,VALID,0,VALID,92.6923,VALID,0,VALID,22.5501,VALID,82,VALID,0.617578,
2012-04-27, 03:25:04,VALID,999.849,VALID,0,VALID,92.7457,VALID,0,VALID,22.5501,VALID,82,VALID,0.642578,
2012-04-27, 03:26:04,VALID,999.866,VALID,0,VALID,92.7685,VALID,0,VALID,22.5306,VALID,82,VALID,0.605078,
2012-04-27, 03:27:04,VALID,999.883,VALID,0,VALID,92.8983,VALID,0,VALID,22.5306,VALID,82,VALID,0.534766,
2012-04-27, 03:28:04,VALID,999.916,VALID,0,VALID,92.8372,VALID,0,VALID,22.5111,VALID,82,VALID,0.394531,
2012-04-27, 03:29:04,VALID,999.923,VALID,0,VALID,92.738,VALID,0.104696,VALID,22.4509,VALID,82,VALID,0.53125,
2012-04-27, 03:30:04,VALID,999.923,VALID,0,VALID,92.7685,VALID,0,VALID,22.4526,VALID,82,VALID,0.785156,
2012-04-27, 03:31:04,VALID,999.947,VALID,0,VALID,92.9593,VALID,0.104696,VALID,22.4331,VALID,51,VALID,0.833984,
2012-04-27, 03:32:04,VALID,999.942,VALID,0,VALID,93.0508,VALID,0,VALID,22.3941,VALID,51,VALID,0.788672,
2012-04-27, 03:33:04,VALID,999.911,VALID,0,VALID,93.1805,VALID,0,VALID,22.3746,VALID,51,VALID,0.672266,
2012-04-27, 03:34:04,VALID,999.914,VALID,0,VALID,93.1729,VALID,0,VALID,22.3746,VALID,51,VALID,0.467969,
2012-04-27, 03:35:04,VALID,999.906,VALID,0,VALID,93.1882,VALID,0,VALID,22.3551,VALID,51,VALID,0.65625,
2012-04-27, 03:36:04,VALID,999.873,VALID,0,VALID,93.234,VALID,0,VALID,22.3356,VALID,51,VALID,0.478125,
2012-04-27, 03:37:04,VALID,999.902,VALID,0,VALID,93.2645,VALID,0,VALID,22.3161,VALID,51,VALID,0.252344,
2012-04-27, 03:38:04,VALID,999.875,VALID,0,VALID,93.2034,VALID,0,VALID,22.3161,VALID,51,VALID,0.228906,
2012-04-27, 03:39:04,VALID,999.915,VALID,0,VALID,93.2263,VALID,0,VALID,22.2966,VALID,51,VALID,0.326172,
2012-04-27, 03:40:04,VALID,999.925,VALID,0,VALID,93.3637,VALID,0,VALID,22.2966,VALID,51,VALID,0.436719,
2012-04-27, 03:41:04,VALID,999.914,VALID,0,VALID,93.5239,VALID,0,VALID,22.2966,VALID,51,VALID,0.426953,
2012-04-27, 03:42:04,VALID,999.915,VALID,0,VALID,93.6765,VALID,0,VALID,22.3161,VALID,51,VALID,0.415234,
2012-04-27, 03:43:04,VALID,999.914,VALID,0,VALID,93.7146,VALID,0,VALID,22.3144,VALID,51,VALID,0.286719,
2012-04-27, 03:44:04,VALID,999.923,VALID,0,VALID,93.6765,VALID,0,VALID,22.3356,VALID,51,VALID,0.360938,